Year,Month,Day,Hour,Minute,Value (Times are PST for temperature in C)
2011,04,10,00,02,8.40
2011,04,10,00,03,8.40
2011,04,10,00,04,8.40
2011,04,10,00,05,8.40
2011,04,10,00,06,8.40
2011,04,10,00,07,8.40
2011,04,10,00,08,8.40
2011,04,10,00,09,8.40
2011,04,10,00,11,8.40
2011,04,10,00,12,8.30
2011,04,10,00,13,8.30
2011,04,10,00,14,8.30
2011,04,10,00,16,8.30
2011,04,10,00,17,8.30
2011,04,10,00,18,8.30
2011,04,10,00,19,8.30
2011,04,10,00,20,8.30
2011,04,10,00,21,8.30
2011,04,10,00,22,8.30
2011,04,10,00,23,8.30
2011,04,10,00,24,8.30
2011,04,10,00,25,8.30
2011,04,10,00,26,8.30
2011,04,10,00,27,8.30
2011,04,10,00,28,8.30
2011,04,10,00,29,8.30
2011,04,10,00,30,8.30
2011,04,10,00,31,8.30
2011,04,10,00,32,8.30
2011,04,10,00,33,8.30
2011,04,10,00,34,8.30
2011,04,10,00,35,8.30
2011,04,10,00,36,8.30
2011,04,10,00,37,8.30
2011,04,10,00,38,8.30
2011,04,10,00,39,8.30
2011,04,10,00,40,8.30
2011,04,10,00,41,8.30
2011,04,10,00,42,8.30
2011,04,10,00,43,8.30
2011,04,10,00,44,8.30
2011,04,10,00,45,8.30
2011,04,10,00,46,8.30
2011,04,10,00,47,8.30
2011,04,10,00,48,8.20
2011,04,10,00,49,8.30
2011,04,10,00,50,8.20
2011,04,10,00,51,8.20
2011,04,10,00,52,8.30
2011,04,10,00,53,8.30
2011,04,10,00,54,8.30
2011,04,10,00,55,8.30
2011,04,10,00,56,8.30
2011,04,10,00,57,8.30
2011,04,10,00,58,8.30
2011,04,10,00,59,8.30
2011,04,10,01,00,8.30
2011,04,10,01,01,8.30
2011,04,10,01,02,8.30
2011,04,10,01,03,8.30
2011,04,10,01,04,8.30
2011,04,10,01,05,8.30
2011,04,10,01,06,8.30
2011,04,10,01,07,8.30
2011,04,10,01,08,8.30
2011,04,10,01,09,8.30
2011,04,10,01,10,8.30
2011,04,10,01,11,8.30
2011,04,10,01,12,8.30
2011,04,10,01,13,8.30
2011,04,10,01,14,8.30
2011,04,10,01,15,8.30
2011,04,10,01,16,8.30
2011,04,10,01,17,8.30
2011,04,10,01,18,8.30
2011,04,10,01,19,8.30
2011,04,10,01,20,8.20
2011,04,10,01,21,8.20
2011,04,10,01,22,8.20
2011,04,10,01,23,8.20
2011,04,10,01,24,8.30
2011,04,10,01,25,8.20
2011,04,10,01,26,8.20
2011,04,10,01,27,8.20
2011,04,10,01,28,8.20
2011,04,10,01,29,8.20
2011,04,10,01,30,8.20
2011,04,10,01,31,8.20
2011,04,10,01,32,8.20
2011,04,10,01,34,8.20
2011,04,10,01,35,8.20
2011,04,10,01,36,8.20
2011,04,10,01,37,8.20
2011,04,10,01,39,8.20
2011,04,10,01,40,8.20
2011,04,10,01,41,8.20
2011,04,10,01,42,8.10
2011,04,10,01,44,8.10
2011,04,10,01,45,8.10
2011,04,10,01,46,8.10
2011,04,10,01,47,8.10
2011,04,10,01,49,8.10
2011,04,10,01,50,8.10
2011,04,10,01,51,8.10
2011,04,10,01,52,8.10
2011,04,10,01,54,8.10
2011,04,10,01,55,8.00
2011,04,10,01,56,8.00
2011,04,10,01,57,8.00
2011,04,10,01,59,8.00
2011,04,10,02,00,8.00
2011,04,10,02,01,8.00
2011,04,10,02,03,8.00
2011,04,10,02,04,8.00
2011,04,10,02,05,8.00
2011,04,10,02,07,7.90
2011,04,10,02,08,7.90
2011,04,10,02,09,7.90
2011,04,10,02,10,7.90
2011,04,10,02,12,7.90
2011,04,10,02,13,7.90
2011,04,10,02,14,7.90
2011,04,10,02,15,7.90
2011,04,10,02,17,7.90
2011,04,10,02,18,7.90
2011,04,10,02,19,7.90
2011,04,10,02,20,7.90
2011,04,10,02,22,7.90
2011,04,10,02,23,7.90
2011,04,10,02,24,7.90
2011,04,10,02,25,7.90
2011,04,10,02,27,7.90
2011,04,10,02,28,7.80
2011,04,10,02,29,7.80
2011,04,10,02,30,7.80
2011,04,10,02,32,7.80
2011,04,10,02,33,7.80
2011,04,10,02,34,7.80
2011,04,10,02,35,7.80
2011,04,10,02,37,7.80
2011,04,10,02,38,7.80
2011,04,10,02,39,7.80
2011,04,10,02,40,7.80
2011,04,10,02,41,7.80
2011,04,10,02,43,7.80
2011,04,10,02,44,7.70
2011,04,10,02,45,7.70
2011,04,10,02,46,7.70
2011,04,10,02,47,7.70
2011,04,10,02,49,7.70
2011,04,10,02,50,7.70
2011,04,10,02,51,7.70
2011,04,10,02,52,7.70
2011,04,10,02,53,7.70
2011,04,10,02,55,7.70
2011,04,10,02,56,7.70
2011,04,10,02,57,7.70
2011,04,10,02,58,7.70
2011,04,10,02,59,7.70
2011,04,10,03,00,7.60
2011,04,10,03,01,7.60
2011,04,10,03,02,7.60
2011,04,10,03,03,7.60
2011,04,10,03,05,7.60
2011,04,10,03,06,7.60
2011,04,10,03,07,7.60
2011,04,10,03,08,7.60
2011,04,10,03,09,7.60
2011,04,10,03,10,7.60
2011,04,10,03,11,7.60
2011,04,10,03,12,7.60
2011,04,10,03,14,7.50
2011,04,10,03,15,7.50
2011,04,10,03,16,7.50
2011,04,10,03,17,7.50
2011,04,10,03,19,7.50
2011,04,10,03,20,7.40
2011,04,10,03,21,7.40
2011,04,10,03,22,7.40
2011,04,10,03,24,7.50
2011,04,10,03,25,7.50
2011,04,10,03,26,7.50
2011,04,10,03,27,7.40
2011,04,10,03,29,7.50
2011,04,10,03,30,7.50
2011,04,10,03,31,7.40
2011,04,10,03,32,7.50
2011,04,10,03,34,7.40
2011,04,10,03,35,7.40
2011,04,10,03,36,7.40
2011,04,10,03,37,7.40
2011,04,10,03,39,7.40
2011,04,10,03,40,7.40
2011,04,10,03,41,7.40
2011,04,10,03,43,7.50
2011,04,10,03,44,7.40
2011,04,10,03,45,7.40
2011,04,10,03,47,7.50
2011,04,10,03,48,7.40
2011,04,10,03,49,7.40
2011,04,10,03,51,7.40
2011,04,10,03,52,7.40
2011,04,10,03,53,7.40
2011,04,10,03,54,7.40
2011,04,10,03,55,7.40
2011,04,10,03,57,7.40
2011,04,10,03,58,7.40
2011,04,10,03,59,7.40
2011,04,10,04,00,7.40
2011,04,10,04,02,7.40
2011,04,10,04,03,7.40
2011,04,10,04,04,7.40
2011,04,10,04,06,7.40
2011,04,10,04,07,7.40
2011,04,10,04,08,7.40
2011,04,10,04,09,7.40
2011,04,10,04,11,7.40
2011,04,10,04,12,7.40
2011,04,10,04,13,7.40
2011,04,10,04,14,7.40
2011,04,10,04,16,7.40
2011,04,10,04,17,7.40
2011,04,10,04,18,7.40
2011,04,10,04,20,7.40
2011,04,10,04,21,7.40
2011,04,10,04,22,7.40
2011,04,10,04,23,7.40
2011,04,10,04,24,7.40
2011,04,10,04,26,7.40
2011,04,10,04,27,7.40
2011,04,10,04,28,7.40
2011,04,10,04,30,7.40
2011,04,10,04,31,7.40
2011,04,10,04,32,7.40
2011,04,10,04,34,7.40
2011,04,10,04,35,7.40
2011,04,10,04,36,7.40
2011,04,10,04,37,7.40
2011,04,10,04,39,7.40
2011,04,10,04,40,7.40
2011,04,10,04,41,7.40
2011,04,10,04,43,7.40
2011,04,10,04,44,7.40
2011,04,10,04,45,7.40
2011,04,10,04,46,7.40
2011,04,10,04,48,7.40
2011,04,10,04,49,7.40
2011,04,10,04,50,7.40
2011,04,10,04,51,7.40
2011,04,10,04,52,7.40
2011,04,10,04,54,7.40
2011,04,10,04,55,7.40
2011,04,10,04,56,7.40
2011,04,10,04,57,7.40
2011,04,10,04,59,7.40
2011,04,10,05,00,7.40
2011,04,10,05,01,7.40
2011,04,10,05,02,7.40
2011,04,10,05,04,7.40
2011,04,10,05,05,7.40
2011,04,10,05,06,7.40
2011,04,10,05,07,7.40
2011,04,10,05,09,7.40
2011,04,10,05,10,7.40
2011,04,10,05,11,7.40
2011,04,10,05,12,7.40
2011,04,10,05,13,7.30
2011,04,10,05,14,7.30
2011,04,10,05,15,7.30
2011,04,10,05,16,7.30
2011,04,10,05,18,7.30
2011,04,10,05,19,7.30
2011,04,10,05,20,7.30
2011,04,10,05,21,7.30
2011,04,10,05,22,7.30
2011,04,10,05,23,7.30
2011,04,10,05,24,7.30
2011,04,10,05,26,7.30
2011,04,10,05,27,7.30
2011,04,10,05,28,7.30
2011,04,10,05,29,7.20
2011,04,10,05,30,7.20
2011,04,10,05,32,7.20
2011,04,10,05,33,7.30
2011,04,10,05,34,7.20
2011,04,10,05,35,7.20
2011,04,10,05,37,7.20
2011,04,10,05,38,7.20
2011,04,10,05,39,7.20
2011,04,10,05,40,7.20
2011,04,10,05,42,7.20
2011,04,10,05,43,7.20
2011,04,10,05,44,7.20
2011,04,10,05,45,7.20
2011,04,10,05,47,7.20
2011,04,10,05,48,7.20
2011,04,10,05,49,7.20
2011,04,10,05,50,7.20
2011,04,10,05,51,7.20
2011,04,10,05,53,7.20
2011,04,10,05,54,7.20
2011,04,10,05,55,7.20
2011,04,10,05,56,7.20
2011,04,10,05,58,7.20
2011,04,10,05,59,7.20
2011,04,10,06,00,7.20
2011,04,10,06,01,7.20
2011,04,10,06,03,7.20
2011,04,10,06,04,7.20
2011,04,10,06,05,7.20
2011,04,10,06,06,7.20
2011,04,10,06,08,7.20
2011,04,10,06,09,7.20
2011,04,10,06,10,7.20
2011,04,10,06,11,7.20
2011,04,10,06,13,7.20
2011,04,10,06,14,7.20
2011,04,10,06,16,7.20
2011,04,10,06,17,7.20
2011,04,10,06,18,7.30
2011,04,10,06,19,7.30
2011,04,10,06,20,7.20
2011,04,10,06,22,7.20
2011,04,10,06,23,7.30
2011,04,10,06,24,7.30
2011,04,10,06,25,7.30
2011,04,10,06,26,7.30
2011,04,10,06,27,7.30
2011,04,10,06,28,7.30
2011,04,10,06,29,7.30
2011,04,10,06,30,7.30
2011,04,10,06,32,7.30
2011,04,10,06,33,7.30
2011,04,10,06,34,7.30
2011,04,10,06,36,7.30
2011,04,10,06,37,7.30
2011,04,10,06,38,7.30
2011,04,10,06,40,7.30
2011,04,10,06,41,7.30
2011,04,10,06,42,7.20
2011,04,10,06,43,7.30
2011,04,10,06,45,7.30
2011,04,10,06,46,7.30
2011,04,10,06,47,7.30
2011,04,10,06,48,7.30
2011,04,10,06,50,7.30
2011,04,10,06,51,7.20
2011,04,10,06,52,7.30
2011,04,10,06,53,7.30
2011,04,10,06,54,7.20
2011,04,10,06,55,7.20
2011,04,10,06,56,7.20
2011,04,10,06,57,7.20
2011,04,10,06,58,7.20
2011,04,10,06,59,7.20
2011,04,10,07,00,7.20
2011,04,10,07,01,7.20
2011,04,10,07,02,7.20
2011,04,10,07,03,7.30
2011,04,10,07,04,7.20
2011,04,10,07,06,7.30
2011,04,10,07,07,7.20
2011,04,10,07,08,7.30
2011,04,10,07,09,7.20
2011,04,10,07,11,7.20
2011,04,10,07,12,7.20
2011,04,10,07,13,7.20
2011,04,10,07,14,7.20
2011,04,10,07,15,7.20
2011,04,10,07,17,7.20
2011,04,10,07,18,7.20
2011,04,10,07,19,7.30
2011,04,10,07,20,7.30
2011,04,10,07,21,7.30
2011,04,10,07,23,7.30
2011,04,10,07,24,7.30
2011,04,10,07,25,7.30
2011,04,10,07,26,7.30
2011,04,10,07,28,7.30
2011,04,10,07,29,7.30
2011,04,10,07,30,7.30
2011,04,10,07,31,7.30
2011,04,10,07,33,7.30
2011,04,10,07,34,7.30
2011,04,10,07,35,7.40
2011,04,10,07,36,7.40
2011,04,10,07,38,7.40
2011,04,10,07,39,7.40
2011,04,10,07,40,7.40
2011,04,10,07,41,7.40
2011,04,10,07,42,7.40
2011,04,10,07,44,7.30
2011,04,10,07,45,7.30
2011,04,10,07,46,7.30
2011,04,10,07,47,7.30
2011,04,10,07,48,7.30
2011,04,10,07,50,7.30
2011,04,10,07,51,7.30
2011,04,10,07,52,7.30
2011,04,10,07,54,7.30
2011,04,10,07,55,7.30
2011,04,10,07,56,7.30
2011,04,10,07,57,7.30
2011,04,10,07,59,7.30
2011,04,10,08,00,7.30
2011,04,10,08,01,7.30
2011,04,10,08,02,7.30
2011,04,10,08,04,7.30
2011,04,10,08,05,7.30
2011,04,10,08,06,7.30
2011,04,10,08,07,7.30
2011,04,10,08,08,7.30
2011,04,10,08,10,7.30
2011,04,10,08,11,7.30
2011,04,10,08,12,7.30
2011,04,10,08,13,7.30
2011,04,10,08,15,7.30
2011,04,10,08,16,7.40
2011,04,10,08,17,7.40
2011,04,10,08,18,7.40
2011,04,10,08,20,7.40
2011,04,10,08,21,7.40
2011,04,10,08,22,7.40
2011,04,10,08,23,7.50
2011,04,10,08,24,7.50
2011,04,10,08,26,7.50
2011,04,10,08,27,7.60
2011,04,10,08,28,7.60
2011,04,10,08,29,7.60
2011,04,10,08,31,7.60
2011,04,10,08,32,7.60
2011,04,10,08,33,7.60
2011,04,10,08,34,7.60
2011,04,10,08,36,7.60
2011,04,10,08,37,7.60
2011,04,10,08,38,7.70
2011,04,10,08,39,7.70
2011,04,10,08,41,7.70
2011,04,10,08,42,7.70
2011,04,10,08,43,7.70
2011,04,10,08,44,7.70
2011,04,10,08,46,7.80
2011,04,10,08,47,7.80
2011,04,10,08,48,7.80
2011,04,10,08,49,7.80
2011,04,10,08,51,7.90
2011,04,10,08,52,7.90
2011,04,10,08,53,7.90
2011,04,10,08,54,7.90
2011,04,10,08,55,7.90
2011,04,10,08,57,7.90
2011,04,10,08,58,8.00
2011,04,10,08,59,8.00
2011,04,10,09,01,8.00
2011,04,10,09,02,8.00
2011,04,10,09,03,8.10
2011,04,10,09,04,8.10
2011,04,10,09,06,8.10
2011,04,10,09,07,8.10
2011,04,10,09,08,8.10
2011,04,10,09,09,8.10
2011,04,10,09,10,8.00
2011,04,10,09,11,8.00
2011,04,10,09,12,8.00
2011,04,10,09,13,8.00
2011,04,10,09,14,8.00
2011,04,10,09,16,7.90
2011,04,10,09,17,7.90
2011,04,10,09,18,7.90
2011,04,10,09,19,7.90
2011,04,10,09,21,7.90
2011,04,10,09,22,7.90
2011,04,10,09,23,7.90
2011,04,10,09,24,7.90
2011,04,10,09,26,7.90
2011,04,10,09,27,8.10
2011,04,10,09,28,8.10
2011,04,10,09,29,8.10
2011,04,10,09,30,8.10
2011,04,10,09,32,8.20
2011,04,10,09,33,8.20
2011,04,10,09,34,8.20
2011,04,10,09,35,8.10
2011,04,10,09,36,8.10
2011,04,10,09,38,8.10
2011,04,10,09,39,8.10
2011,04,10,09,40,8.10
2011,04,10,09,41,8.10
2011,04,10,09,43,8.10
2011,04,10,09,44,8.10
2011,04,10,09,45,8.20
2011,04,10,09,46,8.20
2011,04,10,09,47,8.20
2011,04,10,09,49,8.20
2011,04,10,09,50,8.20
2011,04,10,09,51,8.20
2011,04,10,09,53,8.20
2011,04,10,09,54,8.20
2011,04,10,09,55,8.20
2011,04,10,09,56,8.20
2011,04,10,09,58,8.30
2011,04,10,09,59,8.30
2011,04,10,10,00,8.30
2011,04,10,10,02,8.40
2011,04,10,10,03,8.40
2011,04,10,10,04,8.40
2011,04,10,10,05,8.50
2011,04,10,10,07,8.60
2011,04,10,10,08,8.60
2011,04,10,10,09,8.60
2011,04,10,10,11,8.60
2011,04,10,10,12,8.60
2011,04,10,10,13,8.60
2011,04,10,10,14,8.50
2011,04,10,10,15,8.50
2011,04,10,10,16,8.50
2011,04,10,10,17,8.50
2011,04,10,10,18,8.50
2011,04,10,10,19,8.40
2011,04,10,10,21,8.40
2011,04,10,10,22,8.40
2011,04,10,10,23,8.40
2011,04,10,10,24,8.40
2011,04,10,10,26,8.40
2011,04,10,10,27,8.40
2011,04,10,10,28,8.40
2011,04,10,10,30,8.40
2011,04,10,10,31,8.40
2011,04,10,10,32,8.40
2011,04,10,10,33,8.50
2011,04,10,10,34,8.50
2011,04,10,10,35,8.50
2011,04,10,10,36,8.50
2011,04,10,10,37,8.60
2011,04,10,10,38,8.60
2011,04,10,10,39,8.60
2011,04,10,10,40,8.60
2011,04,10,10,41,8.60
2011,04,10,10,42,8.70
2011,04,10,10,43,8.70
2011,04,10,10,44,8.70
2011,04,10,10,45,8.60
2011,04,10,10,46,8.60
2011,04,10,10,47,8.60
2011,04,10,10,48,8.60
2011,04,10,10,49,8.60
2011,04,10,10,50,8.60
2011,04,10,10,51,8.60
2011,04,10,10,52,8.60
2011,04,10,10,53,8.60
2011,04,10,10,54,8.70
2011,04,10,10,55,8.70
2011,04,10,10,56,8.70
2011,04,10,10,57,8.70
2011,04,10,10,58,8.80
2011,04,10,10,59,8.80
2011,04,10,11,00,8.80
2011,04,10,11,01,8.80
2011,04,10,11,02,8.80
2011,04,10,11,03,8.80
2011,04,10,11,04,8.90
2011,04,10,11,05,8.80
2011,04,10,11,06,8.80
2011,04,10,11,07,8.80
2011,04,10,11,08,8.80
2011,04,10,11,09,8.80
2011,04,10,11,10,8.80
2011,04,10,11,11,8.80
2011,04,10,11,12,8.80
2011,04,10,11,13,8.80
2011,04,10,11,14,8.80
2011,04,10,11,15,8.80
2011,04,10,11,16,8.80
2011,04,10,11,18,8.70
2011,04,10,11,19,8.80
2011,04,10,11,20,8.80
2011,04,10,11,21,8.80
2011,04,10,11,22,8.90
2011,04,10,11,23,8.90
2011,04,10,11,24,9.00
2011,04,10,11,25,9.10
2011,04,10,11,26,9.10
2011,04,10,11,27,9.10
2011,04,10,11,28,9.10
2011,04,10,11,29,9.10
2011,04,10,11,30,9.00
2011,04,10,11,31,9.00
2011,04,10,11,33,8.90
2011,04,10,11,34,8.80
2011,04,10,11,35,8.80
2011,04,10,11,36,8.90
2011,04,10,11,38,8.90
2011,04,10,11,39,9.10
2011,04,10,11,40,9.10
2011,04,10,11,41,9.10
2011,04,10,11,42,9.20
2011,04,10,11,44,9.20
2011,04,10,11,45,9.20
2011,04,10,11,46,9.20
2011,04,10,11,48,9.20
2011,04,10,11,49,9.20
2011,04,10,11,50,9.30
2011,04,10,11,52,9.30
2011,04,10,11,53,9.40
2011,04,10,11,54,9.40
2011,04,10,11,56,9.40
2011,04,10,11,57,9.40
2011,04,10,11,58,9.40
2011,04,10,11,59,9.40
2011,04,10,12,01,9.40
2011,04,10,12,02,9.40
2011,04,10,12,03,9.30
2011,04,10,12,04,9.30
2011,04,10,12,05,9.30
2011,04,10,12,07,9.30
2011,04,10,12,08,9.40
2011,04,10,12,09,9.40
2011,04,10,12,10,9.40
2011,04,10,12,12,9.40
2011,04,10,12,13,9.50
2011,04,10,12,14,9.50
2011,04,10,12,15,9.60
2011,04,10,12,17,9.60
2011,04,10,12,18,9.60
2011,04,10,12,19,9.60
2011,04,10,12,20,9.60
2011,04,10,12,22,9.60
2011,04,10,12,23,9.60
2011,04,10,12,24,9.70
2011,04,10,12,25,9.70
2011,04,10,12,27,9.80
2011,04,10,12,28,9.90
2011,04,10,12,29,9.90
2011,04,10,12,31,9.90
2011,04,10,12,32,9.90
2011,04,10,12,33,9.90
2011,04,10,12,34,10.00
2011,04,10,12,35,10.10
2011,04,10,12,37,10.20
2011,04,10,12,38,10.30
2011,04,10,12,39,10.40
2011,04,10,12,40,10.40
2011,04,10,12,42,10.40
2011,04,10,12,43,10.50
2011,04,10,12,44,10.60
2011,04,10,12,45,10.60
2011,04,10,12,47,10.60
2011,04,10,12,48,10.60
2011,04,10,12,49,10.50
2011,04,10,12,50,10.40
2011,04,10,12,51,10.30
2011,04,10,12,53,10.30
2011,04,10,12,54,10.30
2011,04,10,12,55,10.30
2011,04,10,12,56,10.20
2011,04,10,12,58,10.20
2011,04,10,12,59,10.10
2011,04,10,13,00,10.00
2011,04,10,13,01,9.90
2011,04,10,13,03,9.90
2011,04,10,13,04,9.90
2011,04,10,13,05,9.80
2011,04,10,13,07,9.90
2011,04,10,13,08,9.90
2011,04,10,13,09,10.00
2011,04,10,13,10,10.10
2011,04,10,13,12,10.10
2011,04,10,13,13,10.10
2011,04,10,13,14,10.20
2011,04,10,13,15,10.20
2011,04,10,13,17,10.30
2011,04,10,13,18,10.30
2011,04,10,13,19,10.30
2011,04,10,13,20,10.30
2011,04,10,13,22,10.30
2011,04,10,13,23,10.30
2011,04,10,13,24,10.30
2011,04,10,13,25,10.30
2011,04,10,13,26,10.20
2011,04,10,13,28,10.20
2011,04,10,13,29,10.10
2011,04,10,13,30,10.10
2011,04,10,13,31,10.10
2011,04,10,13,32,10.10
2011,04,10,13,34,10.00
2011,04,10,13,35,10.00
2011,04,10,13,36,10.10
2011,04,10,13,38,10.20
2011,04,10,13,39,10.30
2011,04,10,13,40,10.40
2011,04,10,13,41,10.40
2011,04,10,13,42,10.40
2011,04,10,13,44,10.50
2011,04,10,13,45,10.60
2011,04,10,13,46,10.70
2011,04,10,13,47,10.70
2011,04,10,13,49,10.70
2011,04,10,13,50,10.70
2011,04,10,13,51,10.70
2011,04,10,13,52,10.80
2011,04,10,13,54,10.80
2011,04,10,13,55,10.90
2011,04,10,13,56,10.90
2011,04,10,13,57,10.90
2011,04,10,13,59,10.90
2011,04,10,14,00,10.90
2011,04,10,14,01,10.90
2011,04,10,14,02,10.90
2011,04,10,14,03,10.90
2011,04,10,14,05,10.90
2011,04,10,14,06,11.00
2011,04,10,14,07,11.00
2011,04,10,14,08,11.10
2011,04,10,14,10,11.10
2011,04,10,14,11,11.00
2011,04,10,14,12,10.90
2011,04,10,14,13,10.90
2011,04,10,14,15,10.90
2011,04,10,14,16,10.90
2011,04,10,14,17,10.90
2011,04,10,14,18,10.90
2011,04,10,14,19,10.90
2011,04,10,14,20,10.90
2011,04,10,14,21,10.90
2011,04,10,14,22,10.90
2011,04,10,14,23,10.90
2011,04,10,14,25,10.90
2011,04,10,14,26,10.90
2011,04,10,14,27,10.90
2011,04,10,14,28,11.00
2011,04,10,14,30,10.90
2011,04,10,14,31,10.90
2011,04,10,14,32,10.90
2011,04,10,14,33,10.80
2011,04,10,14,34,10.80
2011,04,10,14,35,10.80
2011,04,10,14,36,10.80
2011,04,10,14,37,10.80
2011,04,10,14,38,10.70
2011,04,10,14,40,10.70
2011,04,10,14,41,10.80
2011,04,10,14,42,10.80
2011,04,10,14,43,10.80
2011,04,10,14,45,10.80
2011,04,10,14,46,10.70
2011,04,10,14,47,10.70
2011,04,10,14,48,10.80
2011,04,10,14,49,10.80
2011,04,10,14,50,10.70
2011,04,10,14,52,10.70
2011,04,10,14,53,10.70
2011,04,10,14,54,10.70
2011,04,10,14,55,10.70
2011,04,10,14,56,10.70
2011,04,10,14,57,10.80
2011,04,10,14,58,10.80
2011,04,10,14,59,10.90
2011,04,10,15,00,10.90
2011,04,10,15,01,11.00
2011,04,10,15,02,11.10
2011,04,10,15,03,11.10
2011,04,10,15,04,11.20
2011,04,10,15,05,11.20
2011,04,10,15,06,11.20
2011,04,10,15,07,11.20
2011,04,10,15,08,11.20
2011,04,10,15,09,11.20
2011,04,10,15,10,11.20
2011,04,10,15,11,11.20
2011,04,10,15,12,11.20
2011,04,10,15,13,11.30
2011,04,10,15,14,11.30
2011,04,10,15,15,11.30
2011,04,10,15,16,11.30
2011,04,10,15,17,11.30
2011,04,10,15,18,11.30
2011,04,10,15,19,11.30
2011,04,10,15,21,11.40
2011,04,10,15,22,11.40
2011,04,10,15,23,11.60
2011,04,10,15,24,11.60
2011,04,10,15,25,11.70
2011,04,10,15,27,11.70
2011,04,10,15,28,11.80
2011,04,10,15,29,11.80
2011,04,10,15,31,11.80
2011,04,10,15,32,11.80
2011,04,10,15,33,11.80
2011,04,10,15,34,11.90
2011,04,10,15,35,11.90
2011,04,10,15,36,11.90
2011,04,10,15,37,12.00
2011,04,10,15,38,12.00
2011,04,10,15,39,12.10
2011,04,10,15,41,12.10
2011,04,10,15,42,11.90
2011,04,10,15,43,11.90
2011,04,10,15,44,11.90
2011,04,10,15,45,12.00
2011,04,10,15,47,12.10
2011,04,10,15,48,12.10
2011,04,10,15,49,12.10
2011,04,10,15,50,12.20
2011,04,10,15,51,12.20
2011,04,10,15,53,12.20
2011,04,10,15,54,12.10
2011,04,10,15,55,12.00
2011,04,10,15,56,11.90
2011,04,10,15,57,11.80
2011,04,10,15,58,11.80
2011,04,10,15,59,11.70
2011,04,10,16,00,11.70
2011,04,10,16,01,11.70
2011,04,10,16,02,11.70
2011,04,10,16,03,11.60
2011,04,10,16,04,11.60
2011,04,10,16,05,11.70
2011,04,10,16,07,11.70
2011,04,10,16,08,11.60
2011,04,10,16,09,11.60
2011,04,10,16,10,11.50
2011,04,10,16,11,11.40
2011,04,10,16,12,11.40
2011,04,10,16,13,11.40
2011,04,10,16,14,11.40
2011,04,10,16,15,11.40
2011,04,10,16,17,11.40
2011,04,10,16,18,11.40
2011,04,10,16,19,11.40
2011,04,10,16,21,11.40
2011,04,10,16,22,11.40
2011,04,10,16,23,11.40
2011,04,10,16,24,11.40
2011,04,10,16,26,11.30
2011,04,10,16,27,11.30
2011,04,10,16,28,11.30
2011,04,10,16,29,11.20
2011,04,10,16,30,11.10
2011,04,10,16,31,11.10
2011,04,10,16,32,10.80
2011,04,10,16,33,10.60
2011,04,10,16,34,10.50
2011,04,10,16,35,10.40
2011,04,10,16,36,10.30
2011,04,10,16,37,10.20
2011,04,10,16,38,10.10
2011,04,10,16,39,10.10
2011,04,10,16,40,10.10
2011,04,10,16,42,10.10
2011,04,10,16,43,10.10
2011,04,10,16,44,10.10
2011,04,10,16,45,10.10
2011,04,10,16,46,10.10
2011,04,10,16,47,10.10
2011,04,10,16,48,10.20
2011,04,10,16,49,10.20
2011,04,10,16,50,10.30
2011,04,10,16,51,10.30
2011,04,10,16,52,10.30
2011,04,10,16,53,10.30
2011,04,10,16,54,10.30
2011,04,10,16,55,10.30
2011,04,10,16,57,10.30
2011,04,10,16,58,10.30
2011,04,10,16,59,10.30
2011,04,10,17,00,10.30
2011,04,10,17,01,10.30
2011,04,10,17,02,10.30
2011,04,10,17,03,10.30
2011,04,10,17,04,10.30
2011,04,10,17,05,10.30
2011,04,10,17,06,10.30
2011,04,10,17,07,10.30
2011,04,10,17,08,10.30
2011,04,10,17,09,10.30
2011,04,10,17,10,10.30
2011,04,10,17,11,10.30
2011,04,10,17,12,10.30
2011,04,10,17,13,10.30
2011,04,10,17,14,10.40
2011,04,10,17,15,10.40
2011,04,10,17,17,10.50
2011,04,10,17,18,10.60
2011,04,10,17,19,10.60
2011,04,10,17,20,10.60
2011,04,10,17,21,10.70
2011,04,10,17,23,10.70
2011,04,10,17,24,10.70
2011,04,10,17,25,10.80
2011,04,10,17,26,10.70
2011,04,10,17,27,10.80
2011,04,10,17,28,10.80
2011,04,10,17,29,10.80
2011,04,10,17,30,10.70
2011,04,10,17,32,10.70
2011,04,10,17,33,10.70
2011,04,10,17,34,10.60
2011,04,10,17,36,10.60
2011,04,10,17,37,10.60
2011,04,10,17,38,10.60
2011,04,10,17,39,10.60
2011,04,10,17,41,10.60
2011,04,10,17,42,10.70
2011,04,10,17,43,10.70
2011,04,10,17,45,10.70
2011,04,10,17,46,10.70
2011,04,10,17,47,10.70
2011,04,10,17,48,10.80
2011,04,10,17,50,10.80
2011,04,10,17,51,10.80
2011,04,10,17,52,10.80
2011,04,10,17,53,10.70
2011,04,10,17,54,10.70
2011,04,10,17,56,10.80
2011,04,10,17,57,10.70
2011,04,10,17,58,10.70
2011,04,10,17,59,10.70
2011,04,10,18,01,10.70
2011,04,10,18,02,10.60
2011,04,10,18,03,10.60
2011,04,10,18,04,10.60
2011,04,10,18,05,10.60
2011,04,10,18,06,10.60
2011,04,10,18,07,10.60
2011,04,10,18,09,10.50
2011,04,10,18,10,10.40
2011,04,10,18,11,10.40
2011,04,10,18,12,10.30
2011,04,10,18,13,10.30
2011,04,10,18,15,10.30
2011,04,10,18,16,10.30
2011,04,10,18,17,10.30
2011,04,10,18,18,10.30
2011,04,10,18,20,10.20
2011,04,10,18,21,10.20
2011,04,10,18,22,10.20
2011,04,10,18,23,10.20
2011,04,10,18,24,10.20
2011,04,10,18,25,10.20
2011,04,10,18,26,10.20
2011,04,10,18,27,10.20
2011,04,10,18,28,10.10
2011,04,10,18,30,10.10
2011,04,10,18,31,10.10
2011,04,10,18,32,10.10
2011,04,10,18,33,10.10
2011,04,10,18,34,10.10
2011,04,10,18,35,10.10
2011,04,10,18,36,10.10
2011,04,10,18,37,10.00
2011,04,10,18,38,10.00
2011,04,10,18,39,10.00
2011,04,10,18,40,10.00
2011,04,10,18,41,10.00
2011,04,10,18,42,10.00
2011,04,10,18,43,10.00
2011,04,10,18,44,10.00
2011,04,10,18,46,10.00
2011,04,10,18,47,10.00
2011,04,10,18,48,10.00
2011,04,10,18,49,10.00
2011,04,10,18,50,10.00
2011,04,10,18,51,10.00
2011,04,10,18,52,10.00
2011,04,10,18,53,10.00
2011,04,10,18,54,10.00
2011,04,10,18,55,10.00
2011,04,10,18,56,10.00
2011,04,10,18,57,9.90
2011,04,10,18,58,10.00
2011,04,10,18,59,9.90
2011,04,10,19,00,10.00
2011,04,10,19,01,9.90
2011,04,10,19,02,9.90
2011,04,10,19,03,9.90
2011,04,10,19,04,9.90
2011,04,10,19,05,9.90
2011,04,10,19,06,10.00
2011,04,10,19,07,10.00
2011,04,10,19,09,10.00
2011,04,10,19,10,10.00
2011,04,10,19,11,10.00
2011,04,10,19,12,10.00
2011,04,10,19,13,9.90
2011,04,10,19,14,9.90
2011,04,10,19,15,9.90
2011,04,10,19,16,9.90
2011,04,10,19,17,9.90
2011,04,10,19,18,9.90
2011,04,10,19,19,9.90
2011,04,10,19,20,9.90
2011,04,10,19,22,9.90
2011,04,10,19,23,9.90
2011,04,10,19,24,9.90
2011,04,10,19,25,9.90
2011,04,10,19,26,9.80
2011,04,10,19,27,9.80
2011,04,10,19,28,9.80
2011,04,10,19,29,9.80
2011,04,10,19,30,9.80
2011,04,10,19,31,9.80
2011,04,10,19,32,9.80
2011,04,10,19,33,9.80
2011,04,10,19,34,9.80
2011,04,10,19,36,9.80
2011,04,10,19,37,9.80
2011,04,10,19,38,9.80
2011,04,10,19,39,9.80
2011,04,10,19,41,9.80
2011,04,10,19,42,9.80
2011,04,10,19,43,9.80
2011,04,10,19,44,9.70
2011,04,10,19,46,9.70
2011,04,10,19,47,9.70
2011,04,10,19,48,9.70
2011,04,10,19,49,9.70
2011,04,10,19,50,9.70
2011,04,10,19,51,9.70
2011,04,10,19,53,9.70
2011,04,10,19,54,9.70
2011,04,10,19,55,9.70
2011,04,10,19,57,9.70
2011,04,10,19,58,9.70
2011,04,10,19,59,9.60
2011,04,10,20,00,9.60
2011,04,10,20,02,9.60
2011,04,10,20,03,9.60
2011,04,10,20,04,9.60
2011,04,10,20,05,9.60
2011,04,10,20,06,9.60
2011,04,10,20,07,9.60
2011,04,10,20,08,9.60
2011,04,10,20,09,9.60
2011,04,10,20,10,9.60
2011,04,10,20,11,9.60
2011,04,10,20,12,9.60
2011,04,10,20,13,9.50
2011,04,10,20,14,9.60
2011,04,10,20,15,9.50
2011,04,10,20,16,9.60
2011,04,10,20,17,9.60
2011,04,10,20,18,9.60
2011,04,10,20,19,9.60
2011,04,10,20,20,9.50
2011,04,10,20,21,9.50
2011,04,10,20,22,9.50
2011,04,10,20,23,9.50
2011,04,10,20,24,9.50
2011,04,10,20,25,9.50
2011,04,10,20,26,9.50
2011,04,10,20,27,9.50
2011,04,10,20,28,9.50
2011,04,10,20,29,9.50
2011,04,10,20,30,9.50
2011,04,10,20,31,9.50
2011,04,10,20,32,9.40
2011,04,10,20,33,9.40
2011,04,10,20,34,9.40
2011,04,10,20,35,9.40
2011,04,10,20,37,9.40
2011,04,10,20,38,9.40
2011,04,10,20,39,9.30
2011,04,10,20,40,9.30
2011,04,10,20,42,9.30
2011,04,10,20,43,9.30
2011,04,10,20,44,9.30
2011,04,10,20,45,9.30
2011,04,10,20,46,9.30
2011,04,10,20,47,9.20
2011,04,10,20,48,9.20
2011,04,10,20,49,9.20
2011,04,10,20,50,9.20